Weather History for Adana, Turkey

Change the Weather History Date:

Saturday, February 22, 2014

  Actual Average Record
Temperature  
Mean Temperature 64 °F -  
Max Temperature 79 °F 63 °F 79 °F (2014)
Min Temperature 48 °F 44 °F 32 °F (2004)
Degree Days  
Heating Degree Days 2    
Growing Degree Days 14 (Base 50)    
Moisture  
Dew Point 37 °F    
Average Humidity 42    
Maximum Humidity 76    
Minimum Humidity 7    
Precipitation  
Precipitation 0.00 in 0.10 in - ()
Sea Level Pressure  
Sea Level Pressure 29.86 in    
Wind  
Wind Speed 5 mph ()    
Max Wind Speed 13 mph    
Max Gust Speed -    
Visibility 4.4 miles    
Events      
Averages and records for this station are not official NWS values.
T = Trace of Precipitation, MM = Missing Value Source: Averaged Metar Reports

Daily Weather History Graph

Daily Weather History Graph

Search for Another Location

Airport:

Trip Planner

Search our weather history database for the weather conditions in past years. The results will help you decide how hot, cold, wet, or windy it might be!

Date:

Astronomy

Feb. 22, 2014 Rise Set
Actual Time 6:19 AM EET 5:25 PM EET
Civil Twilight 5:53 AM EET 5:52 PM EET
Nautical Twilight 5:22 AM EET 6:22 PM EET
Astronomical Twilight 4:52 AM EET 6:52 PM EET
Moon No Moon Rise 10:23 AM EET
Length of Visible Light 11h 59m
Length of Day
11h 06m
Waning Gibbous, 53% of the Moon is Illuminated
Feb 22
Waning Gibbous
Feb 22
Last Quarter
Mar 1
New
Mar 8
First Quarter
Mar 16
Full

Hourly Weather History & Observations

Time (EET) Temp. Dew Point Humidity Pressure Visibility Wind Dir Wind Speed Gust Speed Precip Events Conditions
12:20 AM 57.2 °F 44.6 °F 63% 29.95 in 3.1 mi NNW 4.6 mph - N/A   Haze
12:50 AM 53.6 °F 42.8 °F 67% 29.95 in 3.1 mi North 3.5 mph - N/A   Haze
1:20 AM 51.8 °F 44.6 °F 76% 29.92 in 3.1 mi NE 9.2 mph - N/A   Scattered Clouds
1:50 AM 53.6 °F 42.8 °F 67% 29.89 in 3.1 mi NE 8.1 mph - N/A   Scattered Clouds
2:00 AM 53 °F 43 °F 60% 29.91 in 3 mi NE 8.1 mph - -   Mist
2:20 AM 53.6 °F 42.8 °F 67% 29.89 in 3.1 mi NE 6.9 mph - N/A   Haze
2:50 AM 55.4 °F 39.2 °F 54% 29.89 in 3.1 mi NNE 3.5 mph - N/A   Haze
3:20 AM 51.8 °F 42.8 °F 71% 29.89 in 3.1 mi WSW 3.5 mph - N/A   Haze
3:50 AM 51.8 °F 41.0 °F 67% 29.89 in 3.1 mi Calm Calm - N/A   Haze
4:20 AM 51.8 °F 41.0 °F 67% 29.86 in 3.1 mi Variable 1.2 mph - N/A   Haze
4:50 AM 51.8 °F 39.2 °F 62% 29.86 in 3.1 mi Variable 2.3 mph - N/A   Haze
5:00 AM 53 °F 39 °F 49% 29.88 in 3 mi NW 2.3 mph - -   Haze
5:20 AM 50.0 °F 39.2 °F 66% 29.86 in 3.1 mi NE 1.2 mph - N/A   Haze
5:50 AM 51.8 °F 37.4 °F 58% 29.86 in 3.1 mi NNE 4.6 mph - N/A   Haze
6:20 AM 50.0 °F 37.4 °F 62% 29.89 in 3.1 mi South 3.5 mph - N/A   Haze
6:50 AM 48.2 °F 39.2 °F 71% 29.89 in 3.1 mi SSE 4.6 mph - N/A   Haze
7:20 AM 51.8 °F 39.2 °F 62% 29.89 in 3.1 mi Calm Calm - N/A   Haze
7:50 AM 57.2 °F 41.0 °F 55% 29.89 in 3.1 mi Variable 2.3 mph - N/A   Haze
8:00 AM 57 °F 40 °F 41% 29.90 in 3 mi NW 2.3 mph - -   Haze
8:20 AM 62.6 °F 42.8 °F 48% 29.89 in 3.1 mi Variable 1.2 mph - N/A   Haze
8:50 AM 66.2 °F 35.6 °F 32% 29.86 in 6.2 mi NE 9.2 mph - N/A   Scattered Clouds
9:20 AM 68.0 °F 35.6 °F 30% 29.86 in 6.2 mi NNE 9.2 mph - N/A   Partly Cloudy
9:50 AM 69.8 °F 33.8 °F 27% 29.86 in 6.2 mi NNE 11.5 mph - N/A   Scattered Clouds
10:20 AM 73.4 °F 32.0 °F 22% 29.86 in 6.2 mi NE 12.7 mph - N/A   Scattered Clouds
10:50 AM 73.4 °F 32.0 °F 22% 29.86 in 6.2 mi NE 11.5 mph - N/A   Scattered Clouds
11:00 AM 74 °F 31 °F 11% 29.87 in 6 mi NE 11.5 mph - -   Scattered Clouds
11:20 AM 75.2 °F 32.0 °F 21% 29.86 in 6.2 mi NE 9.2 mph - N/A   Scattered Clouds
11:50 AM 75.2 °F 30.2 °F 19% 29.86 in 6.2 mi NE 6.9 mph - N/A   Partly Cloudy
12:20 PM 77.0 °F 30.2 °F 18% 29.83 in 6.2 mi ENE 5.8 mph - N/A   Partly Cloudy
12:50 PM 78.8 °F 28.4 °F 16% 29.80 in 6.2 mi Variable 4.6 mph - N/A   Scattered Clouds
1:20 PM 77.0 °F 28.4 °F 17% 29.80 in 6.2 mi Variable 3.5 mph - N/A   Scattered Clouds
1:50 PM 77.0 °F 26.6 °F 16% 29.80 in 6.2 mi Variable 5.8 mph - N/A   Scattered Clouds
2:00 PM 78 °F 25 °F 7% 29.81 in 6 mi SSE 5.8 mph - -   Scattered Clouds
2:20 PM 77.0 °F 32.0 °F 19% 29.80 in 6.2 mi Variable 5.8 mph - N/A   Scattered Clouds
2:50 PM 77.0 °F 28.4 °F 17% 29.80 in 6.2 mi South 5.8 mph - N/A   Partly Cloudy
3:20 PM 75.2 °F 28.4 °F 18% 29.80 in 6.2 mi ESE 5.8 mph - N/A   Partly Cloudy
3:50 PM 75.2 °F 32.0 °F 21% 29.80 in 6.2 mi SE 5.8 mph - N/A   Scattered Clouds
4:20 PM 75.2 °F 30.2 °F 19% 29.80 in 6.2 mi SE 5.8 mph - N/A   Mostly Cloudy
4:50 PM 73.4 °F 33.8 °F 23% 29.80 in 6.2 mi South 4.6 mph - N/A   Mostly Cloudy
5:00 PM 73 °F 34 °F 14% 29.82 in 6 mi South 4.6 mph - -   Scattered Clouds
5:20 PM 66.2 °F 37.4 °F 35% 29.80 in 6.2 mi SW 6.9 mph - N/A   Partly Cloudy
5:50 PM 66.2 °F 35.6 °F 32% 29.83 in 6.2 mi West 4.6 mph - N/A   Partly Cloudy
6:20 PM 64.4 °F 37.4 °F 37% 29.83 in 6.2 mi West 5.8 mph - N/A   Partly Cloudy
6:50 PM 64.4 °F 39.2 °F 40% 29.83 in 3.1 mi WNW 4.6 mph - N/A   Haze
7:20 PM 64.4 °F 39.2 °F 40% 29.83 in 3.1 mi NW 4.6 mph - N/A   Haze
7:50 PM 62.6 °F 39.2 °F 42% 29.83 in 3.1 mi NNW 4.6 mph - N/A   Haze
8:00 PM 63 °F 39 °F 29% 29.85 in 3 mi NNW 4.6 mph - -   Haze
8:20 PM 62.6 °F 37.4 °F 39% 29.83 in 3.1 mi NNE 4.6 mph - N/A   Haze
8:50 PM 60.8 °F 39.2 °F 45% 29.83 in 3.1 mi Variable 2.3 mph - N/A   Haze
9:20 PM 57.2 °F 39.2 °F 51% 29.86 in 3.1 mi Variable 2.3 mph - N/A   Haze
9:50 PM 57.2 °F 39.2 °F 51% 29.86 in 3.1 mi East 3.5 mph - N/A   Haze
10:20 PM 53.6 °F 39.2 °F 58% 29.86 in 3.1 mi Variable 2.3 mph - N/A   Haze
10:50 PM 57.2 °F 41.0 °F 55% 29.86 in 3.1 mi North 3.5 mph - N/A   Haze
11:00 PM 57 °F 40 °F 42% 29.88 in 3 mi North 3.5 mph - -   Haze
11:20 PM 55.4 °F 41.0 °F 58% 29.86 in 3.1 mi North 3.5 mph - N/A   Haze
11:50 PM 53.6 °F 39.2 °F 58% 29.86 in 3.1 mi NE 2.3 mph - N/A   Haze